When you browse on this site, cookies collect data to enhance your experience and personalize the content and advertising you see.
Visit our Privacy Policy to learn more. By continuing to use the site, you agree to this use of cookies and data.
  • Em Portugal
  • Lista de países
  • Para 7 dias
  • Temperatura da água
  • Mapas de satélite
  • Mapa do tempo
  • Widgets de tempo
  • user-avatar
    Iniciar Sessão

    Previsão horária em Smolan

    Hoje, 21 Janeiro, Segunda-feira

    Tempo Temperatura Precipitação Vento Pressão Humidade
    00:00 -1°C° 0 mm 1 m/s 650 mmHg 87%
    01:00 -1°C° 0 mm 1 m/s 650 mmHg 86%
    02:00 -2°C° 0 mm 1 m/s 650 mmHg 86%
    03:00 -2°C° 0 mm 1 m/s 650 mmHg 85%
    04:00 -2°C° 0 mm 1 m/s 650 mmHg 85%
    05:00 -2°C° 0 mm 1 m/s 650 mmHg 84%
    06:00 -2°C° 0 mm 1 m/s 650 mmHg 85%
    07:00 -2°C° 0 mm 1 m/s 650 mmHg 86%
    08:00 -2°C° 0 mm 1 m/s 651 mmHg 86%
    09:00 0°C° 0 mm 1 m/s 651 mmHg 87%
    10:00 +2°C° 0 mm 1 m/s 652 mmHg 87%
    11:00 +3°C° 0 mm 1 m/s 653 mmHg 88%
    12:00 +4°C° 0 mm 1 m/s 653 mmHg 88%
    13:00 +4°C° 0 mm 1 m/s 653 mmHg 88%
    14:00 +4°C° 0 mm 1 m/s 653 mmHg 88%
    15:00 +3°C° 0.1 mm 1 m/s 653 mmHg 90%
    16:00 +3°C° 0.1 mm 1 m/s 653 mmHg 93%
    17:00 +2°C° 0.1 mm 1 m/s 653 mmHg 95%
    18:00 +2°C° 0 mm 1 m/s 653 mmHg 96%
    19:00 0°C° 0 mm 0 m/s 653 mmHg 97%
    20:00 0°C° 0 mm 0 m/s 653 mmHg 97%
    21:00 -1°C° 0 mm 0 m/s 653 mmHg 97%
    22:00 -1°C° 0 mm 0 m/s 653 mmHg 97%
    23:00 -2°C° 0 mm 0 m/s 653 mmHg 97%

    Amanhã, 22 Janeiro, Terça-feira

    Tempo Temperatura Precipitação Vento Pressão Humidade
    00:00 -2°C° 0 mm 0 m/s 653 mmHg 97%
    01:00 -2°C° 0 mm 0 m/s 653 mmHg 97%
    02:00 -2°C° 0 mm 0 m/s 653 mmHg 97%
    03:00 -1°C° 0.1 mm 0 m/s 653 mmHg 97%
    04:00 0°C° 0.1 mm 1 m/s 652 mmHg 98%
    05:00 0°C° 0.1 mm 1 m/s 652 mmHg 98%
    06:00 0°C° 0.2 mm 1 m/s 652 mmHg 98%
    07:00 0°C° 0.2 mm 1 m/s 652 mmHg 98%
    08:00 0°C° 0.2 mm 1 m/s 652 mmHg 97%
    09:00 +1°C° 0.1 mm 1 m/s 652 mmHg 97%
    10:00 +1°C° 0.1 mm 1 m/s 652 mmHg 97%
    11:00 +1°C° 0.1 mm 2 m/s 652 mmHg 96%
    12:00 +1°C° 0.1 mm 2 m/s 652 mmHg 96%
    13:00 +1°C° 0.1 mm 2 m/s 651 mmHg 96%
    14:00 +1°C° 0.1 mm 2 m/s 651 mmHg 95%
    15:00 +1°C° 0.1 mm 2 m/s 650 mmHg 96%
    16:00 +1°C° 0.1 mm 2 m/s 650 mmHg 96%
    17:00 +1°C° 0.1 mm 2 m/s 649 mmHg 97%
    18:00 +1°C° 0.2 mm 2 m/s 649 mmHg 97%
    19:00 -1°C° 0.2 mm 2 m/s 648 mmHg 97%
    20:00 -1°C° 0.2 mm 2 m/s 648 mmHg 96%
    21:00 +1°C° 1.1 mm 2 m/s 648 mmHg 97%
    22:00 +1°C° 1.1 mm 2 m/s 647 mmHg 97%
    23:00 +1°C° 1.1 mm 2 m/s 647 mmHg 98%

    Depois de amanhã, 23 Janeiro, Quarta-feira

    Tempo Temperatura Precipitação Vento Pressão Humidade
    00:00 +1°C° 0.7 mm 2 m/s 646 mmHg 98%
    01:00 +2°C° 0.7 mm 2 m/s 646 mmHg 98%
    02:00 +1°C° 0.7 mm 3 m/s 645 mmHg 99%
    03:00 +1°C° 0.1 mm 3 m/s 645 mmHg 98%
    04:00 +2°C° 0.1 mm 2 m/s 645 mmHg 98%
    05:00 +2°C° 0.1 mm 2 m/s 644 mmHg 97%
    06:00 +1°C° 0 mm 2 m/s 644 mmHg 97%
    07:00 +1°C° 0 mm 2 m/s 644 mmHg 97%
    08:00 +1°C° 0 mm 2 m/s 644 mmHg 97%
    09:00 +1°C° 0 mm 2 m/s 645 mmHg 95%
    10:00 +2°C° 0 mm 2 m/s 645 mmHg 94%
    11:00 +3°C° 0 mm 2 m/s 645 mmHg 93%
    12:00 +3°C° 0 mm 2 m/s 645 mmHg 91%
    13:00 +2°C° 0 mm 3 m/s 645 mmHg 90%
    14:00 +3°C° 0 mm 3 m/s 645 mmHg 88%
    15:00 +2°C° 0 mm 3 m/s 644 mmHg 90%
    16:00 +2°C° 0 mm 2 m/s 644 mmHg 91%
    17:00 +2°C° 0 mm 2 m/s 644 mmHg 92%
    18:00 +1°C° 0.1 mm 2 m/s 644 mmHg 94%
    19:00 +2°C° 0.1 mm 1 m/s 644 mmHg 95%
    20:00 +1°C° 0.1 mm 1 m/s 644 mmHg 96%
    21:00 +2°C° 1.3 mm 1 m/s 644 mmHg 97%
    22:00 +1°C° 1.3 mm 2 m/s 644 mmHg 98%
    23:00 +2°C° 1.3 mm 2 m/s 644 mmHg 98%

    24 Janeiro, Quinta-feira

    Tempo Temperatura Precipitação Vento Pressão Humidade
    00:00 +2°C° 2.2 mm 2 m/s 644 mmHg 98%
    01:00 +2°C° 2.2 mm 2 m/s 643 mmHg 98%
    02:00 +2°C° 2.2 mm 2 m/s 643 mmHg 99%
    03:00 +2°C° 3.6 mm 2 m/s 642 mmHg 99%
    04:00 +2°C° 3.6 mm 2 m/s 642 mmHg 99%
    05:00 +3°C° 3.6 mm 1 m/s 641 mmHg 99%
    06:00 +3°C° 3.6 mm 1 m/s 641 mmHg 99%
    07:00 +3°C° 3.6 mm 1 m/s 641 mmHg 99%
    08:00 +3°C° 3.6 mm 1 m/s 641 mmHg 98%
    09:00 +3°C° 5.6 mm 1 m/s 641 mmHg 98%
    10:00 +2°C° 5.6 mm 1 m/s 641 mmHg 98%
    11:00 +2°C° 5.6 mm 1 m/s 641 mmHg 98%
    12:00 +2°C° 5.2 mm 1 m/s 640 mmHg 98%
    13:00 +2°C° 5.2 mm 1 m/s 640 mmHg 98%
    14:00 +1°C° 5.2 mm 2 m/s 640 mmHg 99%
    15:00 +2°C° 1.8 mm 1 m/s 640 mmHg 99%
    16:00 +2°C° 1.8 mm 1 m/s 640 mmHg 98%
    17:00 +2°C° 1.8 mm 1 m/s 640 mmHg 98%
    18:00 +2°C° 1.5 mm 1 m/s 640 mmHg 98%
    19:00 +2°C° 1.5 mm 1 m/s 640 mmHg 98%
    20:00 +2°C° 1.5 mm 1 m/s 640 mmHg 98%
    21:00 +2°C° 2 mm 1 m/s 641 mmHg 98%
    22:00 +2°C° 2 mm 1 m/s 641 mmHg 98%
    23:00 +2°C° 2 mm 1 m/s 641 mmHg 98%

    25 Janeiro, Sexta-feira

    Tempo Temperatura Precipitação Vento Pressão Humidade
    00:00 +2°C° 2.4 mm 1 m/s 641 mmHg 98%
    01:00 +2°C° 2.4 mm 1 m/s 642 mmHg 98%
    02:00 +2°C° 2.4 mm 1 m/s 642 mmHg 98%
    03:00 +2°C° 1.2 mm 1 m/s 642 mmHg 98%
    04:00 +2°C° 1.2 mm 1 m/s 642 mmHg 98%
    05:00 +2°C° 1.2 mm 1 m/s 642 mmHg 99%
    06:00 +2°C° 0.2 mm 1 m/s 642 mmHg 99%
    07:00 +2°C° 0.2 mm 1 m/s 642 mmHg 98%
    08:00 +2°C° 0.2 mm 1 m/s 643 mmHg 98%
    09:00 +2°C° 4.6 mm 1 m/s 643 mmHg 98%
    10:00 +2°C° 4.6 mm 1 m/s 643 mmHg 99%
    11:00 +2°C° 4.6 mm 1 m/s 643 mmHg 99%
    12:00 +2°C° 3.7 mm 1 m/s 643 mmHg 99%
    13:00 +2°C° 3.7 mm 1 m/s 642 mmHg 99%
    14:00 +2°C° 3.7 mm 1 m/s 642 mmHg 99%
    15:00 +1°C° 2.2 mm 2 m/s 642 mmHg 98%
    16:00 0°C° 2.2 mm 3 m/s 642 mmHg 97%
    17:00 -1°C° 2.2 mm 4 m/s 642 mmHg 97%
    18:00 0°C° 0.6 mm 3 m/s 642 mmHg 97%
    19:00 0°C° 0.6 mm 3 m/s 642 mmHg 98%
    20:00 +1°C° 0.6 mm 2 m/s 642 mmHg 98%
    21:00 +1°C° 0.2 mm 2 m/s 642 mmHg 98%
    22:00 +2°C° 0.2 mm 1 m/s 642 mmHg 98%
    23:00 +2°C° 0.2 mm 1 m/s 643 mmHg 99%

    26 Janeiro, Sábado

    Tempo Temperatura Precipitação Vento Pressão Humidade
    00:00 +1°C° 0 mm 1 m/s 643 mmHg 99%
    01:00 +1°C° 0 mm 1 m/s 643 mmHg 99%
    02:00 +1°C° 0 mm 1 m/s 643 mmHg 98%
    03:00 +1°C° 0 mm 1 m/s 642 mmHg 98%
    04:00 +1°C° 0 mm 1 m/s 642 mmHg 97%
    05:00 +1°C° 0 mm 1 m/s 642 mmHg 97%
    06:00 0°C° 0.2 mm 1 m/s 642 mmHg 96%
    07:00 -2°C° 0.2 mm 2 m/s 643 mmHg 94%
    08:00 -2°C° 0.2 mm 2 m/s 643 mmHg 93%
    09:00 -2°C° 0.4 mm 2 m/s 643 mmHg 92%
    10:00 -2°C° 0.4 mm 2 m/s 643 mmHg 92%
    11:00 -2°C° 0.4 mm 2 m/s 643 mmHg 91%
    12:00 -2°C° 0.5 mm 3 m/s 643 mmHg 91%
    13:00 -2°C° 0.5 mm 3 m/s 643 mmHg 91%
    14:00 -2°C° 0.5 mm 3 m/s 643 mmHg 91%
    15:00 -2°C° 1.3 mm 3 m/s 643 mmHg 92%
    16:00 -4°C° 1.3 mm 3 m/s 643 mmHg 93%
    17:00 -5°C° 1.3 mm 3 m/s 643 mmHg 94%
    18:00 -5°C° 0.8 mm 3 m/s 643 mmHg 94%
    19:00 -5°C° 0.8 mm 3 m/s 643 mmHg 93%
    20:00 -5°C° 0.8 mm 3 m/s 643 mmHg 93%
    21:00 -4°C° 0.3 mm 2 m/s 644 mmHg 93%
    22:00 -4°C° 0.3 mm 2 m/s 644 mmHg 93%
    23:00 -4°C° 0.3 mm 2 m/s 644 mmHg 93%
    Mostrar mais